This is the latest recevied weather packets stored in our database for station/object KE5AKC. If no packets are shown the sender has not sent any weather packets the latest 1 day(s).
| Time | Temp. | Humidity | Pressure | Rain* | Wind** | Luminosity | Snow |
|---|---|---|---|---|---|---|---|
| 1778010468 | 29.44° C | 69% | 1008.3 hPa | 0 mm | 0.89 m/s, 244° | 451 W/m² | - |
| 1778010164 | 28.89° C | 70% | 1008.3 hPa | 0 mm | 1.34 m/s, 262° | 519 W/m² | - |
| 1778009860 | 28.89° C | 70% | 1008.3 hPa | 0 mm | 2.24 m/s, 270° | 508 W/m² | - |
| 1778009558 | 28.89° C | 70% | 1008.6 hPa | 0 mm | 1.34 m/s, 311° | 457 W/m² | - |
| 1778009256 | 28.33° C | 73% | 1008.6 hPa | 0 mm | 0 m/s | 510 W/m² | - |
| 1778008953 | 28.33° C | 72% | 1008.6 hPa | 0 mm | 1.34 m/s, 195° | 489 W/m² | - |
| 1778008651 | 27.78° C | 73% | 1008.6 hPa | 0 mm | 0.45 m/s, 137° | 452 W/m² | - |
| 1778008350 | 27.78° C | 74% | 1009 hPa | 0 mm | 0 m/s | 349 W/m² | - |
| 1778008045 | 27.78° C | 73% | 1009.3 hPa | 0 mm | 0.89 m/s, 145° | 245 W/m² | - |
| 1778007745 | 27.78° C | 73% | 1009.3 hPa | 0 mm | 2.24 m/s, 153° | 226 W/m² | - |
| 1778007442 | 28.33° C | 73% | 1009.3 hPa | 0 mm | 1.34 m/s, 222° | 238 W/m² | - |
| 1778007139 | 28.33° C | 73% | 1009 hPa | 0 mm | 2.24 m/s, 136° | 204 W/m² | - |
| 1778006835 | 28.33° C | 73% | 1009.3 hPa | 0 mm | 0.45 m/s, 225° | 249 W/m² | - |
| 1778006532 | 28.33° C | 73% | 1009 hPa | 0 mm | 2.24 m/s, 234° | 329 W/m² | - |
| 1778006229 | 28.33° C | 73% | 1009.3 hPa | 0 mm | 0.45 m/s, 257° | 285 W/m² | - |
| 1778005927 | 27.78° C | 74% | 1009.3 hPa | 0 mm | 0.89 m/s, 315° | 333 W/m² | - |
| 1778005622 | 27.78° C | 73% | 1009.3 hPa | 0 mm | 0.45 m/s, 153° | 347 W/m² | - |
| 1778005320 | 27.78° C | 74% | 1009 hPa | 0 mm | 1.34 m/s, 186° | 372 W/m² | - |
| 1778005016 | 27.78° C | 73% | 1009 hPa | 0 mm | 0.45 m/s, 88° | 371 W/m² | - |
| 1778004714 | 27.78° C | 74% | 1009 hPa | 0 mm | 0.89 m/s, 259° | 329 W/m² | - |
| 1778004410 | 27.78° C | 74% | 1009 hPa | 0 mm | 1.34 m/s, 268° | 420 W/m² | - |
| 1778004107 | 27.78° C | 74% | 1009 hPa | 0 mm | 2.24 m/s, 231° | 529 W/m² | - |
| 1778003803 | 27.22° C | 76% | 1009.3 hPa | 0 mm | 0.89 m/s, 143° | 412 W/m² | - |
| 1778003499 | 27.22° C | 75% | 1009.3 hPa | 0 mm | 1.79 m/s, 231° | 121 W/m² | - |
| 1778003196 | 27.22° C | 75% | 1009.3 hPa | 0 mm | 1.34 m/s, 256° | 244 W/m² | - |
* Rain latest hour (hover to see other rain measurements)
** Current wind speed in m/s (hover to see current wind gust speed)